Location: Ellerstadt
(49.4644°N, 8.2615°E)
Time: 00:00:55
(UTC+00:00)

COSMO-SKYMED 1 - Pass Details

Date: 03 March 2021
Orbit: 621 x 623 km, 97.9° (Epoch: 13 April)

Event Time Altitude Azimuth Distance (km) Brightness Sun altitude
Rises 17:42:25 0° 13° (NNE) 2,918 5.8 -5.5°
Reaches altitude 10° 17:44:37 10° 14° (NNE) 2,006 5.0 -5.9°
Maximum altitude 17:49:00 89° 95° (E) 631 2.6 -6.6°
Drops below altitude 10° 17:53:20 10° 195° (SSW) 1,989 5.4 -7.3°
Sets 17:55:31 0° 195° (SSW) 2,890 6.2 -7.7°
